TimeCST,TemperatureF,Dew PointF,Humidity,Sea Level PressureIn,VisibilityMPH,Wind Direction,Wind SpeedMPH,Gust SpeedMPH,PrecipitationIn,Events,Conditions,WindDirDegrees,DateUTC
12:08 AM,30.0,19.0,64,-9999,-9999.0,NNE,8.1,-,N/A,,Unknown,30,2014-03-01 06:08:00
12:28 AM,28.9,19.0,67,-9999,-9999.0,NE,6.9,-,N/A,,Unknown,40,2014-03-01 06:28:00
12:48 AM,28.9,19.0,67,-9999,-9999.0,NE,11.5,-,N/A,,Unknown,40,2014-03-01 06:48:00
1:08 AM,30.0,19.0,64,-9999,-9999.0,ENE,11.5,-,N/A,,Unknown,60,2014-03-01 07:08:00
1:28 AM,30.0,19.0,64,-9999,-9999.0,ENE,12.7,-,N/A,,Unknown,60,2014-03-01 07:28:00
1:48 AM,30.0,19.0,64,-9999,-9999.0,ENE,10.4,-,N/A,,Unknown,60,2014-03-01 07:48:00
2:08 AM,28.9,19.0,67,-9999,-9999.0,ENE,11.5,-,N/A,,Unknown,60,2014-03-01 08:08:00
2:28 AM,28.9,19.0,67,-9999,-9999.0,NE,9.2,-,N/A,,Unknown,50,2014-03-01 08:28:00
2:48 AM,28.0,18.1,66,-9999,-9999.0,ENE,10.4,-,N/A,,Unknown,70,2014-03-01 08:48:00
3:08 AM,28.0,20.1,72,-9999,-9999.0,ENE,6.9,-,N/A,,Unknown,70,2014-03-01 09:08:00
3:28 AM,27.0,19.0,72,-9999,-9999.0,ENE,6.9,-,N/A,,Unknown,70,2014-03-01 09:28:00
3:48 AM,27.0,21.0,78,-9999,-9999.0,NNE,5.8,-,N/A,,Unknown,30,2014-03-01 09:48:00
4:08 AM,26.1,20.1,78,-9999,-9999.0,NNE,6.9,-,N/A,,Unknown,30,2014-03-01 10:08:00
4:28 AM,25.0,20.1,82,-9999,-9999.0,NE,6.9,-,N/A,,Unknown,50,2014-03-01 10:28:00
4:48 AM,25.0,20.1,82,-9999,-9999.0,ENE,5.8,-,N/A,,Unknown,60,2014-03-01 10:48:00
5:08 AM,25.0,18.1,75,-9999,-9999.0,East,9.2,-,N/A,,Unknown,80,2014-03-01 11:08:00
5:28 AM,24.1,21.0,88,-9999,-9999.0,ENE,5.8,-,N/A,,Unknown,70,2014-03-01 11:28:00
5:48 AM,25.0,19.0,78,-9999,-9999.0,East,6.9,-,N/A,,Unknown,80,2014-03-01 11:48:00
6:08 AM,24.1,20.1,85,-9999,-9999.0,ENE,4.6,-,N/A,,Unknown,70,2014-03-01 12:08:00
6:28 AM,24.1,20.1,85,-9999,-9999.0,ENE,5.8,-,N/A,,Unknown,70,2014-03-01 12:28:00
6:48 AM,25.0,19.0,78,-9999,-9999.0,East,6.9,-,N/A,,Unknown,100,2014-03-01 12:48:00
7:08 AM,24.1,19.0,81,-9999,-9999.0,East,6.9,-,N/A,,Unknown,80,2014-03-01 13:08:00
7:28 AM,24.1,19.0,81,-9999,-9999.0,East,6.9,-,N/A,,Unknown,100,2014-03-01 13:28:00
7:48 AM,24.1,20.1,85,-9999,-9999.0,East,6.9,-,N/A,,Unknown,100,2014-03-01 13:48:00
8:08 AM,24.1,19.0,81,-9999,-9999.0,ESE,8.1,-,N/A,,Unknown,110,2014-03-01 14:08:00
8:28 AM,25.0,19.0,78,-9999,-9999.0,East,8.1,-,N/A,,Unknown,90,2014-03-01 14:28:00
8:48 AM,25.0,19.0,78,-9999,-9999.0,East,8.1,-,N/A,,Unknown,100,2014-03-01 14:48:00
9:08 AM,25.0,19.0,78,-9999,-9999.0,East,8.1,-,N/A,,Unknown,90,2014-03-01 15:08:00
9:28 AM,25.0,19.0,78,-9999,-9999.0,East,6.9,-,N/A,,Unknown,90,2014-03-01 15:28:00
9:48 AM,25.0,20.1,82,-9999,-9999.0,East,8.1,-,N/A,,Unknown,100,2014-03-01 15:48:00
10:08 AM,25.0,20.1,82,-9999,-9999.0,East,11.5,-,N/A,,Unknown,90,2014-03-01 16:08:00
10:28 AM,25.0,19.0,78,-9999,-9999.0,East,9.2,-,N/A,,Unknown,90,2014-03-01 16:28:00
10:48 AM,24.1,18.1,78,-9999,-9999.0,East,10.4,-,N/A,,Unknown,80,2014-03-01 16:48:00
11:08 AM,24.1,20.1,85,-9999,-9999.0,East,9.2,-,N/A,,Unknown,80,2014-03-01 17:08:00
11:28 AM,24.1,18.1,78,-9999,-9999.0,East,10.4,-,N/A,,Unknown,80,2014-03-01 17:28:00
11:48 AM,24.1,18.1,78,-9999,-9999.0,East,11.5,-,N/A,,Unknown,80,2014-03-01 17:48:00
12:08 PM,24.1,16.2,72,-9999,-9999.0,East,13.8,-,N/A,,Unknown,80,2014-03-01 18:08:00
12:28 PM,24.1,17.1,75,-9999,-9999.0,East,12.7,-,N/A,,Unknown,80,2014-03-01 18:28:00
12:48 PM,24.1,18.1,78,-9999,-9999.0,East,11.5,-,N/A,,Unknown,80,2014-03-01 18:48:00
1:08 PM,23.0,18.1,82,-9999,-9999.0,ENE,12.7,-,N/A,,Unknown,70,2014-03-01 19:08:00
1:28 PM,21.9,17.1,82,-9999,-9999.0,ENE,12.7,-,N/A,,Unknown,70,2014-03-01 19:28:00
1:48 PM,21.9,18.1,85,-9999,-9999.0,ENE,12.7,-,N/A,,Unknown,60,2014-03-01 19:48:00
2:08 PM,21.0,18.1,89,-9999,-9999.0,ENE,10.4,-,N/A,,Unknown,60,2014-03-01 20:08:00
2:28 PM,19.9,17.1,89,-9999,-9999.0,NE,11.5,-,N/A,,Unknown,50,2014-03-01 20:28:00
2:48 PM,19.9,16.2,85,-9999,-9999.0,NE,11.5,-,N/A,,Unknown,40,2014-03-01 20:48:00
3:08 PM,19.0,14.0,81,-9999,-9999.0,ENE,12.7,-,N/A,,Unknown,60,2014-03-01 21:08:00
3:28 PM,18.0,14.0,84,-9999,-9999.0,NNE,12.7,-,N/A,,Unknown,30,2014-03-01 21:28:00
3:48 PM,17.1,12.0,81,-9999,-9999.0,NNE,15.0,-,N/A,,Unknown,30,2014-03-01 21:48:00
4:08 PM,15.1,10.0,80,-9999,-9999.0,NNE,15.0,-,N/A,,Unknown,30,2014-03-01 22:08:00
4:28 PM,15.1,10.0,80,-9999,-9999.0,NNE,8.1,-,N/A,,Unknown,20,2014-03-01 22:28:00
4:48 PM,14.0,8.1,77,-9999,-9999.0,North,15.0,-,N/A,,Unknown,10,2014-03-01 22:48:00
5:08 PM,14.0,8.1,77,-9999,-9999.0,North,11.5,-,N/A,,Unknown,10,2014-03-01 23:08:00
5:28 PM,12.9,7.2,78,-9999,-9999.0,North,13.8,-,N/A,,Unknown,350,2014-03-01 23:28:00
5:48 PM,12.9,6.1,74,-9999,-9999.0,North,11.5,-,N/A,,Unknown,350,2014-03-01 23:48:00
6:08 PM,12.0,6.1,77,-9999,-9999.0,North,11.5,-,N/A,,Unknown,10,2014-03-02 00:08:00
6:28 PM,10.9,7.2,85,-9999,-9999.0,NNE,9.2,-,N/A,,Unknown,30,2014-03-02 00:28:00
6:48 PM,10.9,6.1,81,-9999,-9999.0,NE,10.4,-,N/A,,Unknown,40,2014-03-02 00:48:00
7:08 PM,10.9,6.1,81,-9999,-9999.0,NNE,11.5,-,N/A,,Unknown,30,2014-03-02 01:08:00
7:28 PM,10.9,5.0,77,-9999,-9999.0,NNE,6.9,-,N/A,,Unknown,20,2014-03-02 01:28:00
7:48 PM,10.0,5.0,80,-9999,-9999.0,NNE,9.2,-,N/A,,Unknown,30,2014-03-02 01:48:00
8:08 PM,10.0,5.0,80,-9999,-9999.0,NNE,9.2,-,N/A,,Unknown,30,2014-03-02 02:08:00
8:28 PM,10.0,5.0,80,-9999,-9999.0,NNE,6.9,-,N/A,,Unknown,30,2014-03-02 02:28:00
8:48 PM,10.0,5.0,80,-9999,-9999.0,NNE,8.1,-,N/A,,Unknown,30,2014-03-02 02:48:00
9:08 PM,10.0,5.0,80,-9999,-9999.0,NE,9.2,-,N/A,,Unknown,40,2014-03-02 03:08:00
9:28 PM,10.0,5.0,80,-9999,-9999.0,NNE,5.8,-,N/A,,Unknown,30,2014-03-02 03:28:00
9:48 PM,10.0,5.0,80,-9999,-9999.0,NNE,6.9,-,N/A,,Unknown,30,2014-03-02 03:48:00
10:08 PM,10.0,4.1,77,-9999,-9999.0,NNE,10.4,-,N/A,,Unknown,20,2014-03-02 04:08:00
10:28 PM,10.0,3.0,73,-9999,-9999.0,NNE,10.4,-,N/A,,Unknown,20,2014-03-02 04:28:00
10:48 PM,9.0,3.0,77,-9999,-9999.0,NNE,10.4,-,N/A,,Unknown,20,2014-03-02 04:48:00
11:08 PM,9.0,3.0,77,-9999,-9999.0,NNE,9.2,-,N/A,,Unknown,20,2014-03-02 05:08:00
11:28 PM,9.0,1.0,70,-9999,-9999.0,NNE,11.5,-,N/A,,Unknown,20,2014-03-02 05:28:00
11:48 PM,8.1,2.1,77,-9999,-9999.0,NNE,10.4,-,N/A,,Unknown,20,2014-03-02 05:48:00